Torna al catalogo

STARLINK-30866

AttivoComunicazioniVLEO
NORAD 58237·PAYLOAD·🇺🇸 United States

Lanciato Nov 8, 2023 da Cape Canaveral Space Force Station

Loading…

Prossimi Passaggi (prossime 24 ore)

TLE

AggiornatoSource: CelesTrak SupGP

Epoca: Sep 14, 2026, 22:09 UTC

1 58237C 23171H   26257.92340278  .00007918  00000+0  28676-3 0  2579
2 58237  43.0026 296.4619 0001890 273.6523 180.9930 15.27575802    18

Traccia STARLINK-30866 in tempo reale con AllMySat

Download on the App Store